Location: Équennes
(49.7375°N, 1.9622°E)
Time: 17:28:06
(UTC+00:00)

Cosmos 2278 - Pass Details

Date: 30 September 2023
Orbit: 838 x 853 km, 71.1° (Epoch: 08 December)

Event Time Altitude Azimuth Distance (km) Brightness Sun altitude
Rises 22:48:12 0° 332° (NNW) 3,426 7.7 -41.9°
Reaches altitude 10° 22:52:03 10° 358° (N) 2,490 6.7 -42.1°
Enters shadow 22:54:27 14° 23° (NNE) 2,233 6.3 -42.2°
